Flag for U.S.A. Weather past 2 weeks in Bridgewater, Massachusetts, U.S.A.

Now
51 °F

Light rain. Overcast.


Feels Like: 50 °F
Forecast: 49 / 74 °F
Wind: 5 mph from South

Location: Taunton Municipal Airport

Current Time: May 22, 2015 at 4:57:58 AM

Latest Report: May 22, 2015 at 3:52 AM


Visibility: 10 mi

Pressure: 29.83 "Hg

Humidity: 92%

Dew point: 49 °F

Location of BridgewaterLocation

Historic Weather in Bridgewater — Graph

°F

Bridgewater temperature yesterday

Maximum temperature yesterday: 66 °F (at 12:52 PM)
Minimum temperature yesterday: 41 °F (at 5:52 AM)
Average temperature yesterday: 55 °F

Past Weeks' High & Low Weather Summary

 TemperatureHumidityPressure
High83 °F (May 10, 1:52 PM)97% (May 10, 1:52 AM)30.36 "Hg (May 10, 1:52 AM)
Low35 °F (May 14, 4:52 AM)16% (May 7, 11:52 AM)29.67 "Hg (May 12, 6:52 PM)
Average61 °F67%30.08 "Hg
* Reported May 7 2:52 AM — May 22 2:52 AM, Bridgewater, Weather by CustomWeather, © 2015

Note: Actual official high and low records may vary slightly from our data, if they occured in-between our weather recording intervals... More about our weather records

Advertising

Bridgewater weather history for previous 24 hours

 ConditionsComfort  
Time TempWeatherWind HumidityBarometerVisibility
2:52 AM
Fri, May 22
51 °FLight rain. Overcast.3 mph89%29.84 "Hg10 mi
1:52 AM53 °FOvercast.5 mph72%29.84 "Hg10 mi
12:52 AM53 °FOvercast.No wind69%29.86 "Hg10 mi
11:52 PM
Thu, May 21
54 °FOvercast.5 mph64%29.89 "Hg10 mi
10:52 PM54 °FPassing clouds.6 mph62%29.90 "Hg10 mi
9:52 PM55 °FOvercast.5 mph59%29.93 "Hg10 mi
8:52 PM56 °FOvercast.6 mph53%29.91 "Hg10 mi
7:52 PM57 °FOvercast.8 mph47%29.89 "Hg10 mi
6:52 PM60 °FSunny.13 mph44%29.88 "Hg10 mi
5:52 PM62 °FSunny.10 mph39%29.88 "Hg10 mi
4:52 PM64 °FPartly sunny.14 mph34%29.89 "Hg10 mi
3:52 PM65 °FOvercast.10 mph31%29.90 "Hg10 mi
2:52 PM66 °FOvercast.12 mph29%29.91 "Hg10 mi
1:52 PM66 °FSunny.9 mph27%29.93 "Hg10 mi
12:52 PM66 °FScattered clouds.9 mph27%29.93 "Hg10 mi
11:52 AM65 °FSunny.9 mph20%29.95 "Hg10 mi
10:52 AM63 °FSunny.10 mph28%29.96 "Hg10 mi
9:52 AM60 °FSunny.No wind38%29.98 "Hg10 mi
8:52 AM56 °FSunny.No wind51%29.99 "Hg10 mi
7:52 AM54 °FSunny.3 mph57%29.98 "Hg10 mi
6:52 AM49 °FSunny.5 mph71%29.96 "Hg10 mi
5:52 AM41 °FClear.No wind89%29.96 "Hg10 mi
4:52 AM42 °FClear.No wind85%29.95 "Hg10 mi
Weather by CustomWeather, © 2015

See weather overviewHow to use our weather pages